RH
18 23 41 41 57 75 81 87 88 89 83 84 78 63 55 51 53 50 58 64 57 53 46 33 30 35 37
17 18 22 31 29 67 82 81 90 87 87 88 89 82 63 54 50 45 51 59 57 54 48 41 34 36 37
29 21 22 26 23 42 71 87 94 95 90 91 96 95 79 58 50 46 48 56 65 59 51 47 38 37 38
31 24 21 24 27 27 58 83 89 94 92 98 96 96 91 66 55 52 52 50 60 66 56 54 48 44 42
36 36 25 27 33 35 37 62 79 90 94 98 98 97 97 87 70 56 54 57 55 62 56 59 49 52 50
41 43 37 29 35 42 39 44 64 81 96 92 92 96 97 90 84 77 66 65 65 58 58 66 61 54 60
49 46 47 38 35 43 50 44 46 68 85 78 97 90 98 96 94 87 81 73 72 66 57 58 64 64 67
50 40 42 39 34 39 46 48 37 43 72 71 86 89 96 98 94 94 87 83 78 75 67 62 60 61 67
61 53 51 50 46 44 50 58 45 36 43 52 67 77 87 89 92 94 95 87 71 67 64 65 65 66 68
70 58 54 53 52 47 46 57 56 52 42 46 54 78 82 80 87 98 90 93 89 73 60 60 70 73 67
75 63 58 55 52 47 39 48 58 57 48 48 54 77 78 72 78 84 92 94 93 93 81 64 62 66 66
87 75 67 60 52 53 43 42 52 51 58 54 48 56 64 75 90 86 88 93 94 90 90 78 68 66 69
84 73 66 62 63 63 58 49 46 51 64 62 49 48 62 71 89 92 98 99 94 95 95 95 86 71 62
81 75 75 72 68 64 60 50 46 40 58 62 56 54 45 68 84 90 83 94 95 97 93 94 96 91 82
87 82 80 79 71 67 64 53 51 39 51 59 61 57 45 47 65 83 87 97 91 98 97 97 97 94 88
93 88 84 82 77 76 70 65 54 42 42 57 63 68 56 49 63 67 87 97 99 97 97 99 98 98 95
95 93 89 88 85 78 75 70 57 45 40 45 59 70 63 63 57 65 83 90 97 99 97 94 90 94 94